Location: 10033 Water Well
(34.0865°N, 106.8959°W)
Time: 22:15:53
(UTC+00:00)

USA 238 - Pass Details

Date: 13 January 2026
Orbit: 883 x 1328 km, 63.4° (Epoch: 10 January)

Event Time Altitude Azimuth Distance (km) Brightness Sun altitude
Rises 01:50:23 0° 333° (NNW) 4,033 6.9 -18.7°
Reaches altitude 10° 01:53:06 10° 338° (NNW) 3,129 6.2 -19.2°
Maximum altitude 02:00:35 56° 56° (NE) 1,484 4.1 -20.7°
Enters shadow 02:07:10 16° 130° (SE) 2,888 5.6 -22.1°
